Location: Spondin
(51.8528°N, 111.6118°W)
Time: 17:58:54
(UTC+00:00)

Vanguard 2 Rocket - Pass Details

Date: 27 May 2022
Orbit: 553 x 3323 km, 32.9° (Epoch: 02 July)

Event Time Altitude Azimuth Distance (km) Brightness Sun altitude
Rises 19:26:27 0° 214° (SSW) 7,247 11.9 59.5°
Reaches altitude 10° 19:32:31 10° 204° (SSW) 6,275 11.8 59.5°
Maximum altitude 19:47:16 27° 156° (SSE) 4,600 11.4 59.2°
Drops below altitude 10° 19:59:14 10° 107° (ESE) 5,086 10.8 58.8°
Sets 20:03:25 0° 96° (E) 5,709 10.9 58.6°
